FW2402 Weather Reports


Display with metric or nautical units.
time (UTC)temp
F
wind
direction
speed
MPH
gust
MPH
rain 1hr
in
rain 24hr
in
rain mn
in
humidity
%
barometer
mb
20260502184016 70 277 17.0 31.0 0.04 0.04 0.04 84 1011.3
20260502183520 71 260 21.0 47.0 0.03 0.03 0.03 80 1011.2
20260502183034 76 260 23.0 47.0 0.00 0.00 0.00 69 1011.4
20260502182519 83 265 13.0 25.0 0.00 0.00 0.00 69 1011.1
20260502182021 83 277 11.0 19.0 0.00 0.00 0.00 69 1010.3
20260502181541 83 250 9.0 18.0 0.00 0.00 0.00 68 1010.2
20260502181019 83 259 9.0 16.0 0.00 0.00 0.00 67 1010.2
20260502180520 83 274 7.0 19.0 0.00 0.00 0.00 67 1010.1
20260502170520 86 264 12.0 20.0 0.00 0.00 0.00 63 1009.9
20260502164019 86 282 11.0 23.0 0.00 0.00 0.00 62 1009.8
20260502163519 85 243 13.0 23.0 0.00 0.00 0.00 64 1010.1
20260502163046 85 229 6.0 18.0 0.00 0.00 0.00 65 1010.1
20260502162520 85 254 7.0 15.0 0.00 0.00 0.00 65 1010.1
20260502162023 84 232 4.0 15.0 0.00 0.00 0.00 66 1010.1
20260502161537 84 252 4.0 12.0 0.00 0.00 0.00 66 1010.1
20260502161017 84 234 5.0 13.0 0.00 0.00 0.00 66 1010.0
20260502160523 84 219 2.0 13.0 0.00 0.00 0.00 66 1010.0
20260502152017 84 212 4.0 14.0 0.00 0.00 0.00 68 1010.3
20260502151558 84 236 7.0 14.0 0.00 0.00 0.00 67 1010.3
20260502151017 84 313 2.0 12.0 0.00 0.00 0.00 68 1010.2
20260502150518 83 197 2.0 16.0 0.00 0.00 0.00 68 1010.1
20260502130517 72 0 2.0 9.0 0.00 0.00 0.00 90 1010.0
20260502123517 71 186 3.0 9.0 0.00 0.00 0.00 95 1009.3
20260502123035 71 159 3.0 7.0 0.00 0.00 0.00 95 1009.5
20260502122518 71 188 2.0 7.0 0.00 0.00 0.00 96 1009.5
20260502122018 70 190 3.0 7.0 0.00 0.00 0.00 96 1009.5
20260502121538 70 153 2.0 5.0 0.00 0.00 0.00 96 1009.5
20260502121018 69 197 1.0 4.0 0.00 0.00 0.00 96 1009.5
20260502120521 69 0 0.0 5.0 0.00 0.00 0.00 96 1009.5
20260502115517 68 184 1.0 6.0 0.00 0.00 0.00 96 1009.2
20260502115017 68 152 2.0 5.0 0.00 0.00 0.00 96 1009.1
20260502114540 68 150 1.0 4.0 0.00 0.00 0.00 96 1009.1
20260502114017 68 182 1.0 4.0 0.00 0.00 0.00 96 1009.2
20260502113517 68 160 1.0 4.0 0.00 0.00 0.00 96 1009.3
20260502113047 67 132 1.0 4.0 0.00 0.00 0.00 96 1009.1
20260502112517 67 136 0.0 5.0 0.00 0.00 0.00 96 1009.2
20260502112020 67 151 0.0 5.0 0.00 0.00 0.00 96 1009.3
20260502111535 67 175 0.0 1.0 0.00 0.00 0.00 96 1009.2
20260502111049 67 0 0.0 2.0 0.00 0.00 0.00 95 1009.3
20260502110517 67 0 0.0 3.0 0.00 0.00 0.00 95 1009.1
20260502110041 67 0 0.0 4.0 0.00 0.00 0.00 95 1008.9
20260502105521 67 161 1.0 4.0 0.00 0.00 0.00 95 1008.8
20260502105018 67 151 0.0 4.0 0.00 0.00 0.00 95 1008.9
20260502104538 67 0 0.0 4.0 0.00 0.00 0.00 95 1008.7
20260502104020 67 167 0.0 4.0 0.00 0.00 0.00 95 1008.6
20260502103517 67 0 0.0 4.0 0.00 0.00 0.00 95 1008.6
20260502103034 67 0 0.0 4.0 0.00 0.00 0.00 95 1008.6
20260502102518 67 0 0.0 4.0 0.00 0.00 0.00 95 1008.5
20260502102018 67 155 0.0 3.0 0.00 0.00 0.00 95 1008.5
20260502101537 67 0 0.0 3.0 0.00 0.00 0.00 95 1008.5
20260502101017 67 118 1.0 2.0 0.00 0.00 0.00 95 1008.4
20260502100517 66 133 0.0 2.0 0.00 0.00 0.00 95 1008.6
20260502091018 64 0 0.0 0.0 0.00 0.00 0.00 95 1009.4
20260502090517 63 0 0.0 0.0 0.00 0.00 0.00 94 1009.5
20260502090106 64 0 0.0 0.0 0.00 0.00 0.00 93 1009.6
20260502071017 65 0 0.0 0.0 0.00 0.00 0.00 94 1009.9
20260502070517 65 0 0.0 0.0 0.00 0.00 0.00 95 1009.9
20260502070048 64 0 0.0 0.0 0.00 0.00 0.00 94 1009.9
20260502065516 65 0 0.0 0.0 0.00 0.00 0.00 94 1010.0
20260502065016 65 0 0.0 0.0 0.00 0.00 0.00 94 1010.0
20260502064540 66 0 0.0 0.0 0.00 0.00 0.00 94 1010.1
20260502064017 66 0 0.0 0.0 0.00 0.00 0.00 95 1010.0
20260502063517 65 0 0.0 0.0 0.00 0.00 0.00 94 1010.1
20260502063040 65 0 0.0 0.0 0.00 0.00 0.00 94 1010.2
20260502062517 65 0 0.0 0.0 0.00 0.00 0.00 94 1010.2
20260502062019 66 0 0.0 0.0 0.00 0.00 0.00 94 1010.4
20260502061532 65 0 0.0 0.0 0.00 0.00 0.00 94 1010.5
20260502061021 65 0 0.0 0.0 0.00 0.00 0.00 94 1010.5
20260502060519 66 0 0.0 0.0 0.00 0.00 0.00 94 1010.7
20260502060042 66 0 0.0 0.0 0.00 0.00 0.00 94 1010.6
20260502055516 66 0 0.0 0.0 0.00 0.00 0.00 94 1010.5
20260502055018 66 0 0.0 0.0 0.00 0.00 0.00 95 1010.6
20260502054537 65 0 0.0 0.0 0.00 0.00 0.00 94 1010.7
20260502054018 65 0 0.0 0.0 0.00 0.00 0.00 95 1010.7
20260502053517 65 0 0.0 0.0 0.00 0.00 0.00 94 1010.8
20260502053036 66 0 0.0 0.0 0.00 0.00 0.00 94 1010.9
20260502052518 66 0 0.0 0.0 0.00 0.00 0.00 94 1010.8
20260502052018 66 0 0.0 0.0 0.00 0.00 0.00 94 1010.7
20260502051534 67 0 0.0 0.0 0.00 0.00 0.00 94 1010.8
20260502051020 66 0 0.0 0.0 0.00 0.00 0.00 94 1010.7
20260502050519 67 0 0.0 0.0 0.00 0.00 0.00 94 1010.7
20260502050040 67 0 0.0 0.0 0.00 0.00 0.00 94 1010.8
20260502045517 66 0 0.0 0.0 0.00 0.00 0.00 93 1010.9
20260502045020 67 0 0.0 0.0 0.00 0.00 0.00 94 1010.8
20260502044541 67 0 0.0 0.0 0.00 0.00 0.00 93 1010.9
20260502044016 67 0 0.0 0.0 0.00 0.00 0.00 93 1010.9
20260502043516 67 0 0.0 0.0 0.00 0.00 0.00 93 1010.7
20260502043042 67 0 0.0 0.0 0.00 0.00 0.00 93 1010.8
20260502042520 67 0 0.0 0.0 0.00 0.00 0.00 93 1010.8
20260502042019 67 0 0.0 0.0 0.00 0.00 0.00 93 1010.7
20260502041545 67 0 0.0 0.0 0.00 0.00 0.00 92 1010.6
20260502041022 68 0 0.0 0.0 0.00 0.00 0.00 91 1010.7
20260502040517 68 0 0.0 0.0 0.00 0.00 0.00 92 1010.6
20260502040036 68 0 0.0 0.0 0.00 0.00 0.00 91 1010.6
20260502035517 69 0 0.0 0.0 0.00 0.00 0.00 91 1010.7
20260502035017 69 0 0.0 0.0 0.00 0.00 0.00 91 1010.7
20260502034535 68 0 0.0 0.0 0.00 0.00 0.00 92 1010.7
20260502034019 68 0 0.0 0.0 0.00 0.00 0.00 91 1010.7
20260502033516 69 0 0.0 0.0 0.00 0.00 0.00 91 1010.6
20260502033034 68 0 0.0 0.0 0.00 0.00 0.00 90 1010.7
20260502032516 69 0 0.0 0.0 0.00 0.00 0.00 92 1010.4
20260502032016 69 0 0.0 0.0 0.00 0.00 0.00 90 1010.6
20260502031541 69 0 0.0 0.0 0.00 0.00 0.00 90 1010.7
20260502031017 69 0 0.0 0.0 0.00 0.00 0.00 90 1010.7
20260502030517 69 0 0.0 0.0 0.00 0.00 0.00 89 1010.7
20260502030042 69 0 0.0 0.0 0.00 0.00 0.00 89 1010.7
20260502025517 69 0 0.0 0.0 0.00 0.00 0.00 87 1010.7
20260502025016 70 0 0.0 0.0 0.00 0.00 0.00 86 1010.8
20260502024541 71 0 0.0 0.0 0.00 0.00 0.00 87 1010.8
20260502024017 72 0 0.0 0.0 0.00 0.00 0.00 86 1010.7
20260502023520 72 0 0.0 0.0 0.00 0.00 0.00 86 1010.7
20260502023051 72 0 0.0 0.0 0.00 0.00 0.00 87 1010.8
20260502022517 72 0 0.0 0.0 0.00 0.00 0.00 87 1010.8
20260502022016 72 0 0.0 0.0 0.00 0.00 0.00 86 1010.9
20260502021535 72 0 0.0 0.0 0.00 0.00 0.00 85 1010.9
20260502021018 73 0 0.0 1.0 0.00 0.00 0.00 85 1010.8
20260502020517 73 0 0.0 1.0 0.00 0.00 0.00 84 1010.6
20260502020032 73 0 0.0 2.0 0.00 0.00 0.00 84 1010.6
20260502015517 73 0 0.0 2.0 0.00 0.00 0.00 84 1010.7
20260502015019 73 0 1.0 3.0 0.00 0.00 0.00 83 1010.6
20260502014538 73 271 1.0 3.0 0.00 0.00 0.00 83 1010.6
20260502014019 74 271 1.0 4.0 0.00 0.00 0.00 82 1010.7
20260502013516 74 271 1.0 4.0 0.00 0.00 0.00 82 1010.6
20260502013040 74 276 1.0 6.0 0.00 0.00 0.00 81 1010.6
20260502012520 74 275 2.0 6.0 0.00 0.00 0.00 81 1010.4
20260502012016 75 274 3.0 6.0 0.00 0.00 0.00 80 1010.5
20260502011536 75 265 3.0 7.0 0.00 0.00 0.00 79 1010.5
20260502011017 75 268 4.0 7.0 0.00 0.00 0.00 79 1010.4
20260502010519 75 268 3.0 7.0 0.00 0.00 0.00 78 1010.4
20260502010036 75 280 3.0 7.0 0.00 0.00 0.00 77 1010.5
20260502005522 76 259 4.0 7.0 0.00 0.00 0.00 76 1010.5
20260502005017 76 250 3.0 9.0 0.00 0.00 0.00 75 1010.4
20260502004534 76 288 3.0 9.0 0.00 0.00 0.00 73 1010.3
20260502004016 76 263 5.0 9.0 0.00 0.00 0.00 73 1010.3
20260502003517 76 281 5.0 9.0 0.00 0.00 0.00 72 1010.3
20260502003041 77 279 4.0 10.0 0.00 0.00 0.00 70 1010.2
20260502002519 77 255 4.0 10.0 0.00 0.00 0.00 69 1010.2
20260502002021 78 300 5.0 10.0 0.00 0.00 0.00 68 1010.0
20260502001538 78 259 5.0 11.0 0.00 0.00 0.00 68 1010.0
20260502001021 78 271 5.0 11.0 0.00 0.00 0.00 66 1010.0
20260502000516 79 278 7.0 14.0 0.00 0.00 0.00 65 1009.8
20260502000059 79 258 7.0 14.0 0.00 0.00 0.00 65 1009.7
20260501235519 79 271 8.0 12.0 0.00 0.00 0.00 64 1009.6
20260501235024 80 265 7.0 14.0 0.00 0.00 0.00 63 1009.5
20260501234536 80 267 7.0 17.0 0.00 0.00 0.00 62 1009.4
20260501234020 80 261 9.0 17.0 0.00 0.00 0.00 61 1009.4
20260501233517 81 277 10.0 15.0 0.00 0.00 0.00 59 1009.2
20260501233040 81 264 9.0 15.0 0.00 0.00 0.00 59 1009.2
20260501232518 81 284 10.0 15.0 0.00 0.00 0.00 58 1009.2
20260501232020 82 268 9.0 14.0 0.00 0.00 0.00 56 1009.1
20260501231540 82 259 7.0 14.0 0.00 0.00 0.00 55 1008.9
20260501231019 83 287 7.0 12.0 0.00 0.00 0.00 53 1008.9
20260501230519 83 276 8.0 14.0 0.00 0.00 0.00 53 1008.9
20260501230040 83 261 9.0 15.0 0.00 0.00 0.00 52 1008.7
20260501225517 83 274 9.0 15.0 0.00 0.00 0.00 52 1008.7
20260501225016 83 263 8.0 15.0 0.00 0.00 0.00 53 1008.7
20260501224559 84 265 8.0 15.0 0.00 0.00 0.00 53 1008.6
20260501224016 84 265 8.0 14.0 0.00 0.00 0.00 53 1008.6
20260501223519 85 275 8.0 14.0 0.00 0.00 0.00 52 1008.5
20260501223037 86 236 9.0 16.0 0.00 0.00 0.00 52 1008.5
20260501222516 86 277 7.0 16.0 0.00 0.00 0.00 52 1008.5
20260501222016 86 259 10.0 16.0 0.00 0.00 0.00 51 1008.4
20260501221532 87 252 10.0 16.0 0.00 0.00 0.00 50 1008.3
20260501221019 87 254 10.0 16.0 0.00 0.00 0.00 49 1008.2
20260501220519 87 279 7.0 13.0 0.00 0.00 0.00 49 1008.2
20260501220044 87 275 8.0 13.0 0.00 0.00 0.00 47 1008.3
20260501215520 88 257 6.0 15.0 0.00 0.00 0.00 48 1008.1
20260501215016 88 260 10.0 15.0 0.00 0.00 0.00 47 1008.2
20260501214537 88 279 9.0 17.0 0.00 0.00 0.00 47 1008.2
20260501214016 88 246 7.0 17.0 0.00 0.00 0.00 46 1008.3
20260501213522 89 258 8.0 17.0 0.00 0.00 0.00 46 1008.2
20260501213042 89 258 6.0 14.0 0.00 0.00 0.00 45 1008.3
20260501212516 89 258 8.0 15.0 0.00 0.00 0.00 45 1008.5
20260501212023 89 281 4.0 15.0 0.00 0.00 0.00 46 1008.3
20260501211534 89 268 11.0 15.0 0.00 0.00 0.00 46 1008.4
20260501211017 89 261 9.0 15.0 0.00 0.00 0.00 46 1008.3
20260501210521 89 257 8.0 15.0 0.00 0.00 0.00 45 1008.2
20260501210034 88 269 8.0 15.0 0.00 0.00 0.00 48 1008.2
20260501205517 88 276 10.0 14.0 0.00 0.00 0.00 48 1008.2
20260501205017 87 250 9.0 12.0 0.00 0.00 0.00 47 1008.3
20260501204541 87 271 4.0 12.0 0.00 0.00 0.00 47 1008.3
20260501204017 88 242 7.0 11.0 0.00 0.00 0.00 45 1008.2
20260501203516 89 227 5.0 11.0 0.00 0.00 0.00 47 1008.2
20260501203041 88 225 5.0 12.0 0.00 0.00 0.00 46 1008.4
20260501202522 88 208 5.0 12.0 0.00 0.00 0.00 46 1008.6
20260501202018 88 262 6.0 15.0 0.00 0.00 0.00 47 1008.6
20260501201535 88 229 5.0 15.0 0.00 0.00 0.00 47 1008.6
20260501201019 90 253 6.0 15.0 0.00 0.00 0.00 45 1008.6
20260501200520 90 271 6.0 15.0 0.00 0.00 0.00 45 1008.6
20260501200043 89 262 7.0 15.0 0.00 0.00 0.00 46 1008.7
20260501195520 89 282 4.0 12.0 0.00 0.00 0.00 47 1008.8
20260501195020 89 238 5.0 12.0 0.00 0.00 0.00 46 1008.8
20260501194549 90 234 3.0 13.0 0.00 0.00 0.00 46 1008.9
20260501194020 91 265 4.0 13.0 0.00 0.00 0.00 45 1009.0
20260501193519 89 243 7.0 13.0 0.00 0.00 0.00 48 1009.0
20260501193043 90 261 5.0 13.0 0.00 0.00 0.00 46 1009.0
20260501192519 90 248 9.0 15.0 0.00 0.00 0.00 45 1009.2
20260501192021 90 239 10.0 15.0 0.00 0.00 0.00 46 1009.3
20260501191545 91 266 6.0 16.0 0.00 0.00 0.00 45 1009.3
20260501191022 92 256 4.0 16.0 0.00 0.00 0.00 45 1009.3
20260501190515 90 244 4.0 15.0 0.00 0.00 0.00 47 1009.2
20260501190037 90 297 4.0 15.0 0.00 0.00 0.00 47 1009.6
20260501185519 90 251 3.0 15.0 0.00 0.00 0.00 47 1009.7
20260501185019 90 286 7.0 15.0 0.00 0.00 0.00 46 1009.8